Retour au catalogue

DELTA 2 R/B(2)

ActifGTO
NORAD 25360·ROCKET BODY·🇺🇸 United States

Lancé Jun 10, 1998 depuis Cape Canaveral Space Force Station

Loading…

TLE

PériméSource: Space-Track

Époque: Sep 13, 2026, 08:56 UTC

1 25360U 98035C   26256.37282075 -.00000004  00000-0  00000-0 0  9991
2 25360  18.5450 152.2788 6942473  72.2715  14.0095  2.11093251217703

Suivez DELTA 2 R/B(2) en temps réel avec AllMySat

Download on the App Store